Regional Weather Roundup
Issued by NWS

Home | Current Version | Previous Version | Graphics & Text | Print | Product List | Glossary Off
Versions: 1 2 3 4 5 6 7 8 9 10 11 12 13 14 15 16 17 18 19 20 21 22 23 24 25 26 27 28 29 30 31 32 33 34 35 36 37 38 39 40 41 42 43 44 45 46 47 48 49 50

000
ASUS43 KFSD 120010
RWRSD

WEATHER ROUNDUP FOR SOUTH DAKOTA
NATIONAL WEATHER SERVICE SIOUX FALLS SD
600 PM CST MON DEC 11 2017

NOTE: "FAIR" INDICATES FEW OR NO CLOUDS BELOW 12,000 FEET WITH NO
SIGNIFICANT WEATHER AND/OR OBSTRUCTIONS TO VISIBILITY.


SDZ001>005-009-010-012>017-120100-
NORTHWEST AND NORTH CENTRAL SOUTH DAKOTA

CITY           SKY/WX    TMP DP  RH WIND       PRES   REMARKS
BUFFALO          N/A     35  25  66 NW16      30.30S WCI  25
FAITH            N/A     37  28  70 NW23      30.34R
MOBRIDGE       MOCLDY    33  26  75 N7        30.31R WCI  27
$$

SDZ012>016-024>037-041>051-057-063-072>074-120100-
SOUTHWEST AND SOUTH CENTRAL SOUTH DAKOTA

CITY           SKY/WX    TMP DP  RH WIND       PRES   REMARKS
RAPID CTY ARPT CLEAR     35  22  58 N13       30.36R WCI  26
PIERRE         MOCLDY    35  30  82 NW15      30.33R WCI  25
CUSTER         CLEAR     33  -3  21 VRB6      30.33R WCI  28
ELLSWORTH AFB  CLEAR     37  23  57 N16       30.36R
PHILIP         MOCLDY    39  30  70 N15       30.35R
PINE RIDGE     CLEAR     36  24  62 N8        30.37R
SPEARFISH      FAIR      36  19  51 W14       30.38R
WINNER         CLOUDY    38  31  76 NW16      30.32R
$$

SDZ004>011-016>023-039-040-120100-
NORTHEAST SOUTH DAKOTA

CITY           SKY/WX    TMP DP  RH WIND       PRES   REMARKS
ABERDEEN       CLEAR     20  15  81 N12       30.34R WCI   8
WATERTOWN      CLEAR     19  14  81 N21       30.25R WCI   3
BROOKINGS      CLEAR     21  16  81 N20G25    30.24R WCI   6
SISSETON         N/A     20  13  74 N16       30.29R WCI   6
$$

SDZ017-020-022-023-036>040-048>070-120100-
SOUTHEAST SOUTH DAKOTA

CITY           SKY/WX    TMP DP  RH WIND       PRES   REMARKS
SIOUX FALLS    PTCLDY    27  21  78 N14       30.23R WCI  16
HURON          CLEAR     25  17  72 N13       30.32R WCI  14
CHAMBERLAIN    MOCLDY    37  29  75 NW14      30.32R
MITCHELL       CLEAR     30  23  75 N21       30.31R WCI  17
YANKTON        CLEAR     32  26  78 NW15G24   30.26R WCI  22
$$

ABBREVIATIONS USED IN REMARKS
   TC - TEMPERATURE IN CELSIUS
  WCI - WIND CHILL INDEX
   HX - HEAT INDEX
  VSB - VISIBILITY




USA.gov is the U.S. government's official web portal to all federal, state and local government web resources and services.